This is the latest recevied weather packets stored in our database for station/object XE2MDH-15. If no packets are shown the sender has not sent any weather packets the latest 10 day(s).
| Time | Temp. | Humidity | Pressure | Rain* | Wind** | Luminosity | Snow |
|---|---|---|---|---|---|---|---|
| 1777778583 | 22.22° C | 17% | 808.2 hPa | - | - | - | - |
| 1777777682 | 22.22° C | 17% | 807.7 hPa | - | - | - | - |
| 1777776782 | 22.78° C | 17% | 807.5 hPa | - | - | - | - |
| 1777775882 | 23.33° C | 17% | 806.9 hPa | - | - | - | - |
| 1777774982 | 23.89° C | 17% | 806.8 hPa | - | - | - | - |
| 1777774082 | 23.89° C | 17% | 806.4 hPa | - | - | - | - |
| 1777773182 | 25° C | 18% | 806.4 hPa | - | - | - | - |
| 1777772281 | 26.11° C | 18% | 806.1 hPa | - | - | - | - |
| 1777771381 | 28.89° C | 18% | 806 hPa | - | - | - | - |
| 1777770481 | 32.22° C | 19% | 805.8 hPa | - | - | - | - |
| 1777769581 | 33.33° C | 20% | 805.9 hPa | - | - | - | - |
| 1777768681 | 36.11° C | 20% | 805.9 hPa | - | - | - | - |
| 1777767781 | 40° C | 20% | 806 hPa | - | - | - | - |
| 1777766880 | 42.22° C | 21% | 805.9 hPa | - | - | - | - |
| 1777765980 | 43.89° C | 22% | 805.7 hPa | - | - | - | - |
| 1777765080 | 45° C | 22% | 805.5 hPa | - | - | - | - |
| 1777764183 | 45° C | 22% | 805.6 hPa | - | - | - | - |
| 1777763283 | 46.67° C | 23% | 805.9 hPa | - | - | - | - |
| 1777762383 | 48.33° C | 23% | 806 hPa | - | - | - | - |
| 1777761483 | 48.89° C | 23% | 806.1 hPa | - | - | - | - |
| 1777760582 | 52.22° C | 24% | 806.3 hPa | - | - | - | - |
| 1777759682 | 52.22° C | 24% | 806.3 hPa | - | - | - | - |
| 1777758782 | 52.22° C | 24% | 806.6 hPa | - | - | - | - |
| 1777757882 | 52.22° C | 25% | 806.7 hPa | - | - | - | - |
| 1777756982 | 49.44° C | 25% | 807 hPa | - | - | - | - |
* Rain since midnight (hover to see other rain measurements)
** Current wind speed in m/s (hover to see current wind gust speed)